Tracking 32214 objects as of 19-Nov-2025
HD Live streaming from Space Station
objects crossing your sky now

STARLINK-35593

Track STARLINK-35593 now!
10-day predictions
STARLINK-35593 is classified as:


NORAD ID: 66107
Int'l Code: 2025-236X
Perigee: 424.6 km
Apogee: 426.8 km
Inclination: 53.2 °
Period: 92.9 minutes
Semi major axis: 6796 km
RCS: Unknown
Launch date: October 19, 2025
Source: United States (US)
Launch site: AIR FORCE WESTERN TEST RANGE (AFWTR)
Your satellite tracking list
Your tracking list is empty




NASA's NSSDC Master Catalog

Two Line Element Set (TLE):
1 66107U 25236X   25322.82725536  .00083797  00000-0  14950-2 0  9995
2 66107  53.1607 260.0551 0001626 104.1207 255.9983 15.49377012  5952
Source of the keplerian elements: AFSPC